Vertical_Velocity
-5 2 -2 3 -0 -3 -3 -0 -2 -2 -5 -2 -3 -7 -1 1 -0 -5 -3 -1 -1 0 0 0 1 1 2 -2 -2 0 -1 -1 -2 -1 -0 -1 -1 -0 -2 1 -2 -2 2 -1 1 -3 -1
-3 -3 4 -1 3 -3 -2 4 7 2 -3 -8 9 -3 7 19 8 1 2 4 2 2 2 -0 1 -0 -1 -3 -3 1 -0 -1 -3 -2 -2 -1 -3 -1 -1 -2 -4 1 1 -1 -0 -5 0
-0 -2 -3 1 -2 1 -2 -5 -3 -5 -12 1 -5 -11 -2 -2 3 -1 -3 -3 -4 -0 -1 1 0 -1 2 2 -0 0 -1 -1 -1 -1 -3 -3 -3 -4 1 -3 -2 -1 -3 -0 -3 -5 -4
0 -0 -3 3 2 1 2 2 -3 -5 -1 -3 -3 -1 -5 -3 -3 -5 -2 -1 1 0 -1 -1 -1 -1 -1 -2 -1 -2 -2 -1 -0 -1 -2 -0 1 -1 -2 -1 -3 -1 1 -0 7 -4 -11
-3 1 2 -2 -1 -1 -0 4 6 1 -1 -6 1 3 0 -2 2 2 2 2 1 1 -1 -0 -0 -1 0 0 1 1 -0 -0 -0 -0 1 -3 -1 -1 1 -0 -1 -0 -2 3 -9 2 -10
-3 -2 -3 2 1 2 1 0 2 5 5 2 4 -1 -2 -1 -1 2 5 4 2 -1 -2 -0 1 2 4 0 1 -1 -0 1 1 -0 -0 0 1 -1 -2 -1 -8 -4 -2 -6 1 -8 -5
-2 -3 4 -1 2 3 -0 -0 1 1 -0 2 0 -0 3 3 -0 -0 -1 -1 -2 0 1 2 1 1 -1 2 -0 1 -1 -1 -0 0 -4 -2 -0 -4 -3 0 -4 -3 -3 -6 -4 -10 -8
-1 -0 -3 1 -1 -1 -1 -0 -1 -1 1 2 -4 -3 -3 -4 0 4 2 -1 -1 -0 -1 -2 -1 -4 -0 -0 -1 -2 -2 -3 -1 0 0 -2 -5 -3 -2 -4 -5 -6 -5 -5 4 -5 -12
-2 -2 0 -3 2 0 1 -1 -1 -1 -1 -1 1 -1 -2 -2 -2 -0 2 2 1 1 0 -0 0 -0 -2 -2 -3 -3 0 -1 -2 -3 -3 -2 -1 -2 -2 -4 -3 -3 -3 -2 -4 -6 -6
-1 -2 -3 -1 -2 -3 2 1 -1 2 0 -1 -3 -1 -1 -3 -5 -4 -4 -3 -1 1 -2 -1 -2 -0 1 -1 -1 3 -3 -5 -3 -4 -4 -2 -3 -3 -1 -0 -3 -2 -2 -2 -5 -3 -0
-0 -1 -4 -2 -0 1 0 -1 0 -2 -0 -1 -1 -3 -4 -6 -6 -6 -6 -7 -6 1 -4 2 1 -0 -3 1 -0 -0 -3 -2 -4 -2 -4 -0 -2 -2 -1 -2 -5 -1 -2 -3 -4 -5 -0
-0 -1 1 -4 -2 -1 -2 0 -1 -0 -1 -1 1 -1 -1 -5 -3 -4 -5 -3 -2 -2 -10 -2 -3 -3 -0 1 -1 -3 -3 -2 -2 -2 1 -0 -3 -1 -1 -4 1 1 -2 -2 -2 -0 -2
-1 -1 -1 0 -3 -2 -1 -3 -2 1 -1 -2 -1 -1 -2 -3 -4 -6 -8 -7 -1 -3 1 -4 -3 -1 -1 -2 -2 -1 -1 -2 -2 -0 -1 -1 0 1 2 3 2 -0 1 2 0 -1 1
-3 -1 -2 1 2 -1 -1 -0 -1 -4 -1 -2 -2 0 -0 -1 -2 -2 -1 -3 2 -4 -2 1 -2 -3 -1 -1 -1 -2 0 2 -1 -2 -0 0 -0 0 1 0 1 -0 -0 -0 -1 -1 2
2 -1 -1 -2 1 3 -0 2 1 -1 -2 0 -1 -1 -1 -0 -1 -3 -2 -2 -2 -2 -4 -3 -2 -2 -1 2 -1 0 1 1 1 2 -0 -1 4 3 3 1 -0 -2 -2 3 0 -3 -1
-0 1 -0 0 -3 -1 2 -2 1 1 -0 -2 -2 -0 -1 -1 -1 2 1 -2 -1 -2 -3 -1 -2 -1 -1 -1 -1 -1 -2 -3 -2 -1 -1 -2 -1 -2 1 1 2 0 -1 -1 -1 -2 0
-1 -0 1 0 1 -0 -2 1 -1 0 2 1 2 -2 0 -1 -1 1 0 1 1 1 0 -2 -3 -3 -0 0 -1 -2 -1 0 0 1 -1 -2 1 -0 1 1 0 -1 -2 1 2 1 -0
-1 0 -1 0 1 2 0 -2 -2 1 1 1 3 -1 1 0 -2 -0 0 0 1 -3 -2 -0 -1 -3 -3 -2 -1 -1 -3 -1 -1 -1 -0 -2 1 -1 1 2 1 1 1 2 2 -1 -1
1 2 0 -1 -1 -0 2 2 0 -2 1 1 1 1 0 -0 1 -1 -0 -1 -0 -0 -1 -1 -2 -1 -3 -4 -4 -3 -0 -2 -1 -0 -0 0 -1 0 -1 1 2 2 1 -0 -0 -1 -1
-1 -1 2 -0 1 1 -0 1 1 -0 -2 0 0 3 -0 0 1 2 1 -1 0 -1 -0 -2 -0 -2 -3 -1 -1 -1 -3 0 -3 -1 -1 0 0 1 -1 -1 -1 -1 1 0 -2 -1 1
-1 -1 -1 0 3 1 2 -1 3 1 -1 -3 1 4 2 2 -1 -1 -1 -1 0 -1 -0 -0 0 0 -1 1 -1 -1 -2 -4 -4 -1 -1 -2 -1 -1 0 -1 -3 -1 -1 -2 -3 -3 -2
0 -1 -2 -1 -1 3 0 1 -1 1 1 -2 -2 2 1 2 1 1 1 2 -1 0 -0 -1 -2 -1 -2 -2 -3 1 1 0 -3 -5 -2 -1 -1 -1 -1 -0 -1 -2 -1 0 -1 -0 -1
-1 -1 -2 -1 -0 -2 2 0 2 0 0 2 -1 -4 1 2 2 -1 0 0 1 1 0 1 -1 -3 -2 -2 -3 -2 -2 1 -2 -4 -2 -1 -2 -3 -0 -1 -1 -2 -2 -1 2 -0 3
1 0 -1 -3 -0 -1 -1 -0 1 1 1 -1 0 -1 -3 -1 1 2 -1 -1 -2 -2 -0 1 1 -0 -0 0 -1 -2 -4 -2 -1 -2 -4 -3 -1 -1 1 -0 -1 -3 -0 -1 -2 -4 -2
-0 1 0 -0 -4 -0 -0 -0 -1 -2 2 -0 2 1 -2 -3 -0 2 -0 -0 -1 -2 -1 -1 -2 0 -1 0 -0 -0 -1 -0 -1 1 1 0 -1 -2 -1 -1 -2 2 -0 -0 1 -0 -1
-1 1 1 1 -1 -4 -1 0 1 -2 -1 1 1 2 -2 -1 1 0 2 -0 -1 -1 -1 -0 -2 -2 -3 -1 -1 -2 -0 -1 0 1 -2 -2 -2 -3 -3 -3 -0 0 -1 -1 -2 3 -0
3 -1 1 1 -0 -3 -2 -1 1 1 -0 0 2 2 -1 -3 -1 0 -1 0 0 1 0 -1 -2 -2 -0 -1 -1 -1 -1 -0 -3 -1 -1 -3 -2 -2 -3 -3 2 0 -2 -3 -3 -3 -2
-1 -2 -2 2 1 -3 -2 -2 0 1 2 1 0 0 1 -2 -0 -1 0 -1 -1 0 1 -0 0 -2 -2 -1 -2 -1 -2 -0 -0 -1 -0 -3 -2 -1 0 -4 0 -2 0 -3 -2 -1 -2
2 -1 -2 0 2 -1 -3 -0 -2 -2 -0 2 -0 2 1 2 1 1 0 1 2 -0 0 -1 -2 0 -0 -2 -2 -1 -1 -1 -0 3 1 -2 -2 -2 -0 0 -2 2 1 2 0 -1 0
Height
5691 5677 5664 5650 5635 5621 5612 5606 5604 5605 5606 5611 5618 5633 5645 5653 5663 5670 5678 5685 5692 5700 5706 5711 5715 5720 5723 5728 5732 5735 5739 5742 5745 5748 5752 5755 5758 5760 5762 5765 5767 5769 5772 5774 5776 5777 5779
5699 5687 5674 5664 5651 5638 5628 5620 5618 5616 5616 5623 5635 5645 5650 5659 5666 5676 5683 5689 5694 5700 5704 5708 5713 5717 5721 5724 5727 5730 5734 5738 5740 5742 5745 5748 5751 5754 5756 5758 5761 5764 5766 5768 5770 5771 5774
5710 5696 5684 5674 5666 5657 5648 5642 5638 5636 5636 5642 5648 5656 5661 5668 5674 5681 5687 5690 5695 5698 5702 5705 5709 5711 5715 5719 5721 5724 5728 5731 5734 5736 5739 5742 5745 5747 5749 5751 5754 5756 5759 5761 5762 5764 5767
5719 5709 5698 5688 5679 5672 5667 5662 5659 5659 5659 5660 5664 5669 5672 5675 5680 5686 5689 5691 5692 5696 5699 5702 5705 5708 5710 5712 5715 5718 5721 5723 5726 5729 5731 5734 5737 5739 5741 5744 5746 5747 5750 5751 5756 5756 5759
5728 5718 5710 5701 5693 5685 5680 5677 5675 5673 5674 5676 5678 5678 5679 5682 5685 5687 5688 5689 5691 5693 5696 5698 5701 5703 5705 5707 5709 5711 5713 5716 5718 5721 5724 5726 5729 5732 5733 5735 5737 5739 5741 5742 5743 5747 5750
5738 5729 5719 5712 5705 5699 5693 5689 5686 5684 5685 5685 5687 5688 5689 5688 5689 5690 5690 5690 5691 5693 5694 5695 5697 5700 5701 5703 5703 5705 5707 5709 5711 5713 5716 5718 5721 5723 5725 5728 5729 5731 5733 5734 5735 5737 5740
5746 5739 5731 5722 5717 5712 5707 5703 5698 5694 5691 5691 5690 5691 5691 5691 5691 5691 5691 5691 5693 5693 5693 5694 5695 5697 5697 5698 5700 5701 5703 5704 5705 5707 5710 5712 5714 5715 5717 5718 5720 5722 5724 5726 5727 5728 5732
5755 5747 5740 5734 5727 5721 5716 5712 5709 5706 5702 5699 5696 5694 5692 5690 5689 5687 5687 5688 5690 5690 5691 5692 5693 5694 5694 5695 5697 5697 5699 5700 5700 5701 5702 5705 5705 5708 5709 5710 5711 5713 5715 5716 5718 5718 5720
5765 5757 5749 5743 5737 5732 5726 5722 5718 5715 5712 5709 5705 5701 5697 5693 5690 5687 5686 5685 5685 5687 5690 5691 5691 5692 5692 5693 5693 5693 5694 5694 5694 5695 5696 5697 5699 5699 5700 5701 5703 5704 5706 5707 5709 5710 5709
5772 5766 5760 5753 5747 5741 5736 5730 5726 5723 5719 5717 5714 5710 5705 5700 5695 5691 5688 5686 5687 5688 5690 5691 5690 5689 5689 5689 5690 5689 5689 5691 5690 5690 5690 5691 5691 5692 5693 5693 5695 5696 5697 5698 5700 5701 5701
5780 5773 5768 5761 5755 5750 5745 5740 5735 5730 5726 5723 5720 5716 5712 5707 5702 5697 5695 5692 5692 5693 5694 5695 5693 5693 5692 5692 5692 5690 5689 5688 5686 5685 5685 5684 5684 5685 5685 5686 5686 5688 5688 5689 5690 5691 5692
5786 5781 5775 5769 5763 5758 5752 5748 5743 5738 5733 5730 5726 5723 5719 5715 5710 5706 5702 5700 5700 5702 5699 5700 5699 5697 5696 5694 5693 5692 5690 5688 5687 5685 5684 5683 5683 5683 5682 5682 5682 5681 5681 5682 5682 5683 5684
5794 5787 5782 5776 5770 5765 5759 5755 5750 5745 5740 5736 5732 5728 5724 5720 5717 5712 5709 5708 5708 5706 5705 5705 5703 5701 5699 5697 5695 5694 5692 5690 5688 5687 5684 5683 5682 5681 5680 5679 5678 5678 5678 5679 5680 5680 5680
5800 5795 5789 5783 5778 5772 5767 5761 5756 5752 5747 5742 5737 5733 5729 5725 5722 5719 5716 5715 5714 5711 5709 5707 5706 5704 5702 5700 5698 5696 5694 5692 5690 5687 5686 5685 5684 5681 5679 5678 5676 5675 5676 5676 5676 5677 5678
5804 5799 5796 5791 5784 5780 5774 5769 5763 5758 5753 5748 5743 5739 5735 5730 5727 5724 5722 5720 5718 5715 5713 5711 5709 5707 5705 5702 5701 5699 5696 5695 5693 5691 5689 5686 5684 5681 5680 5677 5677 5675 5675 5676 5676 5676 5677
5808 5804 5799 5796 5792 5786 5781 5775 5770 5765 5759 5755 5749 5743 5740 5735 5732 5728 5726 5724 5721 5719 5716 5714 5712 5710 5707 5705 5704 5702 5700 5699 5697 5694 5692 5690 5687 5682 5679 5677 5676 5676 5676 5677 5676 5676 5675
5811 5807 5803 5799 5795 5792 5786 5781 5776 5770 5765 5760 5756 5750 5745 5741 5737 5734 5730 5727 5725 5722 5719 5717 5714 5712 5710 5708 5707 5705 5703 5701 5699 5697 5694 5691 5688 5686 5681 5679 5678 5678 5677 5677 5677 5676 5673
5815 5811 5806 5803 5798 5794 5791 5786 5781 5775 5770 5766 5761 5757 5751 5747 5743 5738 5734 5731 5728 5726 5722 5718 5716 5714 5712 5710 5708 5706 5705 5702 5700 5698 5696 5694 5690 5687 5684 5681 5680 5678 5677 5677 5676 5675 5672
5815 5812 5809 5805 5801 5796 5793 5789 5785 5781 5774 5770 5766 5761 5756 5752 5748 5743 5739 5735 5732 5728 5725 5722 5719 5716 5713 5711 5710 5708 5706 5704 5702 5699 5697 5696 5693 5689 5687 5685 5682 5679 5678 5677 5676 5674 5672
5815 5812 5808 5806 5802 5798 5794 5791 5787 5784 5779 5774 5770 5766 5761 5757 5752 5748 5743 5739 5735 5731 5728 5725 5722 5718 5715 5712 5710 5708 5707 5704 5703 5701 5698 5697 5694 5691 5689 5686 5685 5682 5679 5678 5676 5674 5673
5815 5811 5807 5804 5802 5798 5794 5791 5788 5785 5781 5778 5773 5769 5765 5762 5757 5753 5747 5742 5739 5734 5730 5727 5724 5721 5718 5715 5712 5709 5706 5704 5702 5701 5699 5698 5696 5695 5692 5689 5687 5685 5682 5680 5678 5676 5673
5812 5811 5806 5802 5800 5797 5794 5791 5788 5785 5782 5779 5776 5771 5767 5764 5760 5756 5752 5746 5742 5738 5733 5730 5726 5723 5720 5717 5715 5711 5708 5705 5702 5701 5699 5698 5698 5695 5693 5691 5689 5687 5685 5682 5680 5678 5675
5809 5807 5805 5801 5797 5795 5793 5790 5788 5784 5782 5779 5776 5773 5769 5765 5762 5758 5754 5750 5745 5741 5737 5732 5728 5724 5720 5718 5715 5712 5710 5705 5702 5701 5700 5699 5698 5696 5694 5692 5690 5689 5686 5683 5680 5678 5676
5807 5803 5801 5798 5795 5791 5790 5788 5787 5783 5780 5778 5775 5772 5770 5766 5762 5758 5755 5752 5748 5744 5739 5734 5730 5726 5723 5718 5715 5713 5711 5708 5705 5701 5700 5698 5697 5695 5694 5692 5691 5689 5685 5683 5681 5679 5677
5803 5800 5797 5795 5792 5789 5786 5785 5783 5781 5778 5775 5773 5770 5768 5766 5762 5758 5755 5752 5749 5746 5742 5737 5733 5728 5724 5720 5717 5714 5711 5709 5706 5703 5700 5697 5696 5695 5693 5692 5691 5688 5686 5683 5680 5678 5675
5798 5795 5793 5790 5787 5785 5782 5780 5779 5776 5775 5772 5769 5767 5765 5763 5762 5759 5755 5751 5749 5745 5742 5739 5735 5731 5727 5723 5719 5716 5712 5708 5706 5704 5701 5698 5695 5694 5692 5690 5688 5686 5684 5681 5678 5676 5672
5790 5788 5787 5784 5781 5779 5777 5774 5773 5771 5769 5767 5765 5762 5761 5760 5758 5756 5754 5751 5746 5744 5741 5738 5735 5732 5727 5724 5720 5716 5713 5709 5705 5702 5699 5697 5694 5691 5689 5686 5686 5682 5680 5677 5675 5674 5668
5784 5780 5779 5777 5774 5771 5770 5768 5766 5765 5763 5761 5759 5756 5755 5753 5753 5751 5749 5746 5744 5741 5738 5735 5733 5729 5727 5724 5720 5716 5712 5709 5706 5702 5698 5695 5692 5689 5687 5684 5682 5678 5676 5674 5671 5666 5663
5776 5774 5770 5769 5765 5764 5762 5761 5759 5758 5756 5755 5753 5751 5750 5748 5747 5745 5743 5741 5739 5738 5736 5732 5730 5726 5724 5722 5719 5715 5711 5707 5704 5700 5697 5695 5691 5687 5683 5681 5678 5675 5672 5669 5666 5663 5660